Orbital Elements at Epoch 2459200.5 (2020-Dec-17.0) TDB
Reference: JPL 29 (heliocentric ecliptic J2000)
Element | Value | Uncertainty (1-sigma) | Units |
e | .1722209214737707 | 2.4764e-08 | |
a | 2.178656602610015 | 5.8907e-09 | au |
q | 1.803446354933603 | 5.2894e-08 | au |
i | 3.725543021384989 | 2.8193e-06 | deg |
node | 97.1787000708925 | 5.9746e-05 | deg |
peri | 204.6588806389769 | 6.0998e-05 | deg |
M | 80.43870573373206 | 1.3437e-05 | deg |
tp | 2458938.051452104611 (2020-Mar-29.55145210) | 4.36e-05 | TDB |
period | 1174.577293114242 3.22 | 4.7638e-06 1.304e-08 | d yr |
n | .3064932398322684 | 1.2431e-09 | deg/d |
Q | 2.553866850286426 | 6.9052e-09 | au |
|
| | Orbit Determination Parameters
Additional Information
|